Wind_Speed
35 34 33 31 28 27 27 27 26 26 25 22 19 18 16 16 16 16 14 14 14 13 13 12 12 13 14 14 15 16 16 16 15 15 15 15 14 14 14 14 15 15 15 15
36 35 35 33 31 29 28 28 27 26 26 24 23 21 20 19 18 18 17 16 16 15 14 14 14 15 16 16 17 17 17 17 17 16 16 16 15 15 15 15 15 16 15 15
38 36 36 37 33 32 31 30 28 28 26 26 25 23 21 21 20 20 20 19 18 18 17 16 16 17 17 18 18 18 18 19 19 18 18 17 17 16 16 16 16 16 16 16
40 38 40 38 36 35 33 32 30 28 27 26 24 23 24 24 22 22 23 22 21 20 19 19 18 18 18 19 20 20 19 20 20 20 19 18 18 18 18 18 17 17 17 17
41 41 40 38 37 37 36 34 33 31 29 28 25 25 25 26 26 25 24 24 23 23 22 21 21 20 20 21 21 21 20 20 21 21 19 19 19 19 19 19 19 18 18 18
41 42 41 38 38 38 38 37 35 33 31 31 29 27 27 27 27 27 26 25 25 24 23 23 22 22 22 22 22 22 22 21 21 21 20 20 20 20 20 19 19 20 19 19
42 42 41 37 36 38 39 37 35 34 33 32 31 29 28 29 28 27 27 26 26 25 25 24 24 24 24 24 23 23 23 22 21 20 20 20 20 21 21 20 20 21 20 20
42 42 41 38 38 38 38 36 35 35 33 32 30 30 29 29 29 29 29 28 27 27 26 27 26 26 25 25 25 24 24 23 22 22 21 21 21 22 22 22 21 21 21 22
42 41 38 38 38 38 38 38 36 36 34 33 32 31 30 30 30 30 30 30 29 29 29 29 29 28 27 27 27 26 26 25 24 24 23 23 23 24 24 23 23 22 22 22
41 41 39 38 37 37 37 37 37 36 35 34 33 32 31 31 31 30 30 30 31 31 30 30 30 30 29 28 28 28 28 27 26 26 26 25 25 25 25 25 24 24 23 23
40 40 38 38 38 37 36 36 36 35 34 34 34 34 33 33 33 32 31 31 31 31 31 31 31 30 29 29 29 29 29 29 28 28 28 27 27 26 26 25 25 25 25 25
40 39 38 37 37 36 35 35 35 35 35 35 35 34 35 35 34 34 33 32 32 32 31 31 30 30 30 30 29 30 30 30 30 29 29 28 28 27 27 27 26 26 26 26
39 40 39 37 36 36 36 36 36 36 37 37 36 35 36 36 35 34 33 33 32 32 31 31 31 31 31 32 32 31 31 30 30 30 30 29 28 28 28 27 27 27 26 26
38 38 39 38 38 38 37 37 37 37 38 38 38 38 37 37 36 35 34 34 33 33 33 32 32 32 32 33 32 31 31 31 31 30 30 29 28 28 28 28 27 27 27 27
38 39 39 38 39 38 38 38 38 38 38 39 39 39 38 38 38 37 36 35 35 34 34 33 33 33 33 33 33 32 32 31 31 31 30 30 29 29 28 28 28 28 28 28
38 38 39 39 38 37 37 37 37 38 39 39 39 38 38 38 39 37 35 35 35 34 34 34 34 34 34 34 34 33 33 32 31 31 30 31 31 30 30 29 29 29 29 29
36 37 39 39 39 38 38 37 37 37 37 37 38 38 38 38 38 37 36 35 34 34 35 35 35 35 35 35 34 34 34 33 32 32 31 31 31 31 31 31 30 30 30 29
37 36 37 38 39 39 38 38 38 38 38 37 37 38 38 37 35 35 35 35 35 34 34 34 35 35 34 34 34 33 33 34 34 33 33 32 32 32 32 32 31 31 30 30
37 37 36 35 36 37 37 36 37 38 37 36 36 35 35 35 35 35 34 35 35 35 34 35 35 36 35 35 34 34 34 34 35 34 34 34 34 33 33 32 32 31 31 32
34 36 35 35 35 35 35 35 35 36 36 35 34 34 34 34 34 34 33 33 33 33 34 34 34 35 35 35 35 35 35 35 35 35 34 34 34 34 33 32 32 32 32 32
32 33 33 33 34 34 34 35 35 35 34 33 33 33 33 33 33 33 33 32 32 32 33 33 33 33 34 34 34 34 34 34 34 35 34 33 33 32 32 33 32 32 32 32
30 32 33 32 32 33 33 33 33 32 32 31 32 31 31 31 31 31 31 30 30 31 32 31 31 31 31 32 33 34 34 33 33 33 33 32 31 31 31 32 32 32 31 31
29 30 30 31 31 32 31 31 30 30 30 29 30 30 29 29 29 29 29 29 28 29 30 29 29 30 30 31 31 32 33 32 32 31 30 30 30 30 30 30 30 31 31 32
24 25 26 28 29 29 29 28 27 27 28 28 28 28 28 28 28 28 27 27 28 29 29 29 29 29 30 31 31 32 31 30 29 29 29 28 29 29 28 28 28 29 30 30
20 21 23 24 26 27 27 26 25 25 25 25 26 27 28 28 28 27 27 28 28 27 28 28 28 29 30 30 30 29 28 28 27 28 27 27 27 27 27 27 27 28 29 29
17 18 20 21 22 23 24 23 23 23 23 24 24 24 25 26 26 26 26 25 25 26 26 26 26 27 27 27 26 25 25 26 26 26 26 26 27 27 27 28 28 28 29 30
16 17 17 18 19 20 21 20 20 21 21 22 22 22 23 24 24 24 24 25 25 25 25 24 24 24 23 24 23 23 23 23 24 24 25 26 26 27 27 27 27 27 27 28
Wind_Direction
219 218 219 223 222 221 225 229 235 238 239 237 243 252 259 266 273 274 280 286 287 293 298 302 304 306 310 316 319 322 324 326 327 328 328 327 327 326 324 324 324 324 324 326
220 219 220 222 224 224 227 229 234 239 241 239 242 250 258 263 270 269 274 278 280 286 291 294 298 299 303 307 311 315 318 319 319 319 320 320 321 319 318 318 319 320 321 323
221 220 221 221 221 224 227 229 232 237 240 240 243 249 257 262 267 267 271 273 277 281 285 289 292 294 297 300 304 308 311 312 312 311 312 312 314 313 313 313 314 316 317 320
224 222 223 222 222 225 228 231 234 237 240 244 248 251 258 263 267 269 271 272 274 278 282 285 289 292 295 299 302 305 307 307 306 306 305 305 306 308 308 308 310 312 313 315
226 225 226 223 222 226 230 232 235 237 239 243 248 252 258 263 266 267 271 270 271 275 279 282 284 287 291 296 300 302 304 304 303 302 300 301 302 303 303 304 306 307 308 310
227 227 227 224 224 228 232 233 235 237 239 243 247 251 256 261 263 266 269 268 270 273 275 279 282 286 290 294 297 299 301 300 299 299 299 301 301 304 304 302 303 305 304 305
229 229 228 224 224 226 230 233 235 238 240 244 249 253 256 260 262 265 269 270 273 274 275 277 279 282 285 289 292 295 297 297 296 295 295 298 300 300 302 301 300 300 301 302
231 231 229 226 226 228 232 234 235 238 241 245 249 253 257 260 261 264 265 267 269 272 275 277 278 279 281 285 288 291 294 295 294 293 292 294 295 296 297 298 298 298 299 300
232 232 229 228 229 232 234 236 237 238 240 243 247 252 256 259 261 263 264 265 267 269 272 275 276 277 277 280 283 286 289 291 292 292 291 291 292 293 293 294 294 296 297 298
231 230 230 230 231 233 236 239 240 241 242 244 247 250 253 258 261 263 264 267 268 269 271 273 274 275 277 279 281 283 286 288 289 291 290 288 289 291 292 291 292 293 293 295
231 231 230 230 232 234 237 240 241 242 243 244 248 251 254 256 260 262 264 265 268 269 270 272 273 273 276 278 279 282 284 284 285 288 289 287 287 289 289 289 290 291 291 291
230 231 231 231 233 236 238 240 241 243 244 245 248 251 253 256 258 261 264 265 266 267 268 269 271 273 276 277 278 281 283 284 285 286 287 287 286 287 287 287 287 288 289 289
230 231 232 231 232 235 238 239 240 243 245 246 247 250 253 255 258 261 263 265 266 267 268 269 270 273 275 276 278 279 280 282 284 285 285 285 285 285 285 284 285 286 287 287
231 232 232 232 232 235 238 240 241 243 245 246 247 249 251 255 259 261 262 264 266 266 266 269 270 273 275 277 277 278 279 281 282 283 283 283 283 282 282 282 285 286 286 288
232 233 234 234 235 237 238 240 242 244 245 247 247 250 253 257 259 260 264 263 265 267 268 269 270 272 273 275 276 278 278 279 280 281 280 281 281 280 281 283 283 283 285 286
232 233 233 236 236 238 240 240 241 243 247 249 251 253 255 259 260 261 263 264 264 266 267 269 270 271 271 273 275 276 277 278 278 278 279 280 279 279 280 282 282 282 283 284
231 233 235 237 240 242 242 243 243 244 247 250 253 255 258 261 260 260 261 263 263 264 266 269 270 271 271 273 274 275 276 276 276 277 278 278 278 279 280 282 283 284 284 283
230 233 236 237 240 243 245 246 246 247 248 251 253 255 258 259 260 260 260 262 264 265 267 269 271 271 271 272 274 275 275 276 276 275 277 277 278 278 278 278 279 281 282 283
231 233 235 238 242 244 245 246 247 248 249 250 253 256 257 259 260 260 262 263 264 266 269 271 272 271 271 271 272 275 277 277 277 276 276 277 277 277 278 277 276 277 279 281
236 237 237 239 243 245 246 248 249 250 251 252 255 256 258 259 258 260 263 265 266 267 269 271 272 272 271 271 273 275 276 277 277 276 276 276 277 277 276 275 275 276 278 281
236 236 237 240 242 245 248 250 250 252 252 252 255 256 258 259 259 260 261 264 266 267 270 272 273 274 273 272 273 274 276 278 278 277 276 277 278 277 275 274 274 275 277 280
236 236 238 240 243 246 248 249 250 252 252 251 254 256 257 259 262 265 266 267 268 269 271 271 273 274 275 274 274 275 277 278 279 278 275 276 277 276 274 273 274 277 279 280
236 237 238 240 242 244 245 246 249 250 249 250 252 255 257 259 262 266 267 268 269 270 273 274 275 275 275 276 277 278 278 278 279 277 276 276 276 275 275 274 275 276 277 279
236 237 239 241 241 243 246 247 249 251 251 251 253 255 258 260 262 266 267 269 270 272 274 275 276 277 278 278 278 279 278 277 278 278 277 276 276 276 276 274 274 275 276 278
239 238 240 242 243 242 244 247 248 250 250 251 253 257 260 262 263 264 266 270 271 273 274 276 276 278 280 281 280 279 277 276 275 275 276 276 275 276 276 275 275 278 279 280
237 238 241 244 245 244 244 246 247 248 249 252 255 260 263 263 263 266 270 273 275 276 276 277 278 280 281 281 280 279 279 278 277 278 278 278 277 276 277 278 279 282 283 283
236 239 242 242 243 243 243 244 246 248 251 254 258 262 263 263 266 269 271 274 276 276 276 276 278 280 282 284 283 282 281 280 280 280 280 280 278 277 278 279 279 281 284 285
Height
5882 5887 5891 5895 5899 5902 5904 5907 5910 5912 5915 5917 5918 5919 5920 5921 5921 5922 5922 5923 5923 5923 5923 5922 5921 5920 5919 5917 5915 5913 5912 5909 5907 5905 5903 5900 5898 5895 5893 5890 5888 5885 5883 5880
5876 5881 5885 5889 5893 5896 5899 5902 5905 5907 5910 5912 5914 5915 5916 5917 5917 5917 5918 5919 5919 5919 5919 5919 5918 5917 5916 5914 5912 5910 5908 5906 5904 5902 5900 5897 5895 5892 5890 5887 5885 5882 5880 5877
5869 5874 5878 5882 5888 5891 5894 5896 5899 5901 5905 5907 5909 5910 5912 5913 5913 5913 5914 5915 5915 5915 5915 5914 5914 5913 5912 5910 5908 5906 5904 5902 5900 5898 5896 5894 5891 5889 5886 5884 5881 5879 5877 5874
5861 5867 5870 5879 5882 5884 5887 5890 5893 5896 5899 5901 5903 5905 5906 5907 5908 5908 5909 5910 5910 5910 5910 5910 5909 5908 5907 5905 5903 5902 5900 5898 5896 5894 5892 5889 5887 5885 5883 5880 5877 5875 5873 5871
5853 5858 5862 5870 5875 5878 5880 5883 5886 5889 5892 5895 5897 5899 5900 5901 5902 5903 5904 5904 5904 5904 5905 5904 5904 5902 5901 5900 5898 5897 5895 5893 5891 5889 5887 5885 5882 5880 5878 5875 5873 5871 5869 5867
5845 5849 5854 5863 5868 5870 5873 5876 5880 5883 5886 5888 5891 5893 5895 5895 5896 5897 5898 5898 5898 5898 5899 5898 5898 5897 5896 5894 5893 5891 5890 5888 5886 5884 5882 5880 5877 5875 5873 5871 5869 5867 5865 5862
5837 5841 5846 5855 5860 5862 5866 5869 5873 5876 5879 5882 5884 5886 5888 5889 5890 5891 5891 5891 5891 5892 5892 5892 5891 5891 5890 5888 5887 5885 5884 5882 5880 5878 5876 5874 5872 5870 5868 5866 5864 5862 5860 5858
5828 5833 5842 5847 5851 5855 5858 5862 5866 5869 5872 5875 5877 5879 5880 5881 5882 5883 5884 5885 5884 5884 5885 5885 5884 5884 5883 5882 5881 5879 5877 5876 5874 5872 5870 5868 5867 5865 5862 5860 5858 5856 5854 5852
5821 5828 5834 5838 5842 5846 5850 5854 5858 5861 5864 5867 5869 5871 5873 5874 5875 5876 5877 5877 5877 5877 5877 5877 5877 5876 5876 5875 5874 5872 5871 5869 5867 5866 5864 5862 5860 5858 5856 5854 5852 5850 5848 5846
5812 5818 5824 5829 5833 5837 5842 5846 5849 5853 5856 5859 5861 5863 5864 5866 5867 5868 5869 5869 5869 5869 5869 5869 5868 5868 5867 5867 5866 5865 5863 5862 5860 5859 5857 5855 5853 5851 5849 5847 5845 5844 5842 5840
5804 5810 5815 5820 5824 5829 5833 5837 5841 5844 5848 5850 5853 5855 5857 5858 5859 5860 5861 5861 5861 5861 5861 5860 5859 5859 5859 5858 5857 5856 5855 5853 5852 5851 5849 5847 5845 5844 5842 5840 5838 5837 5835 5833
5797 5802 5807 5813 5817 5821 5825 5829 5833 5836 5839 5842 5844 5846 5848 5849 5850 5851 5852 5852 5852 5852 5852 5851 5851 5850 5850 5849 5848 5848 5846 5845 5844 5842 5841 5839 5837 5835 5834 5833 5831 5829 5827 5826
5790 5795 5799 5804 5809 5813 5817 5820 5824 5828 5830 5833 5835 5837 5839 5840 5841 5842 5842 5842 5842 5842 5842 5842 5842 5842 5841 5840 5840 5839 5838 5837 5835 5834 5832 5831 5829 5827 5826 5824 5823 5821 5819 5818
5782 5786 5791 5796 5800 5804 5808 5811 5815 5818 5821 5823 5825 5827 5829 5830 5831 5831 5832 5832 5833 5833 5833 5833 5833 5833 5832 5831 5830 5830 5829 5828 5826 5825 5823 5822 5820 5819 5817 5816 5815 5813 5812 5810
5774 5778 5782 5787 5791 5795 5799 5802 5804 5807 5810 5812 5815 5817 5819 5820 5821 5821 5822 5822 5823 5823 5823 5823 5824 5824 5823 5822 5821 5820 5819 5818 5817 5815 5814 5813 5811 5810 5809 5807 5806 5805 5804 5802
5765 5769 5773 5777 5782 5785 5788 5791 5794 5797 5800 5803 5805 5807 5808 5810 5811 5811 5812 5812 5812 5813 5813 5814 5814 5813 5812 5812 5811 5810 5809 5808 5806 5804 5804 5803 5802 5801 5799 5798 5797 5796 5795 5793
5757 5761 5765 5768 5772 5776 5780 5782 5785 5788 5791 5793 5795 5797 5798 5799 5800 5800 5801 5802 5802 5802 5803 5803 5803 5803 5802 5801 5800 5799 5798 5797 5796 5795 5794 5793 5792 5791 5790 5789 5788 5787 5785 5784
5749 5753 5756 5760 5763 5767 5770 5773 5776 5778 5781 5783 5784 5786 5787 5788 5789 5790 5791 5791 5792 5792 5792 5792 5792 5791 5791 5790 5789 5788 5787 5786 5785 5784 5783 5782 5782 5781 5780 5779 5778 5777 5776 5774
5740 5744 5748 5751 5754 5757 5760 5763 5766 5769 5771 5773 5774 5776 5777 5778 5780 5780 5781 5781 5781 5782 5782 5781 5780 5780 5779 5778 5778 5777 5776 5775 5773 5773 5772 5772 5771 5771 5770 5769 5768 5767 5766 5765
5731 5735 5739 5742 5745 5748 5751 5754 5757 5759 5761 5763 5765 5766 5767 5768 5769 5770 5770 5770 5770 5771 5771 5770 5769 5768 5768 5767 5767 5766 5765 5764 5762 5761 5761 5760 5760 5760 5759 5758 5758 5757 5756 5755
5723 5727 5730 5734 5737 5739 5742 5745 5747 5749 5752 5753 5755 5756 5757 5758 5759 5759 5760 5760 5760 5760 5760 5760 5759 5758 5757 5757 5756 5755 5754 5753 5752 5751 5750 5750 5749 5748 5748 5748 5748 5747 5746 5745
5715 5719 5722 5725 5728 5731 5734 5736 5738 5741 5743 5744 5746 5747 5748 5749 5750 5750 5750 5751 5751 5751 5751 5750 5749 5748 5747 5746 5745 5744 5744 5743 5742 5741 5740 5739 5738 5738 5737 5737 5737 5736 5736 5735
5708 5710 5713 5717 5720 5722 5725 5727 5729 5731 5733 5735 5737 5738 5739 5741 5741 5742 5742 5742 5742 5742 5742 5741 5740 5739 5738 5737 5736 5735 5734 5733 5732 5731 5730 5729 5728 5728 5727 5727 5727 5726 5725 5724
5701 5703 5706 5709 5712 5714 5717 5718 5720 5723 5725 5727 5729 5730 5731 5732 5733 5733 5733 5733 5733 5733 5733 5732 5732 5730 5729 5728 5726 5725 5724 5723 5722 5721 5720 5720 5719 5719 5718 5717 5717 5716 5715 5714
5695 5697 5700 5703 5705 5708 5710 5712 5714 5716 5718 5720 5721 5723 5724 5724 5725 5725 5725 5725 5725 5725 5724 5724 5723 5721 5720 5719 5717 5715 5714 5714 5713 5713 5712 5711 5710 5710 5709 5708 5708 5707 5706 5705
5691 5693 5695 5697 5699 5702 5704 5706 5708 5709 5711 5713 5715 5715 5716 5716 5717 5717 5717 5717 5717 5717 5716 5715 5714 5713 5712 5711 5709 5707 5706 5705 5704 5704 5703 5702 5702 5701 5701 5700 5699 5698 5697 5696
5688 5689 5691 5693 5695 5697 5698 5699 5701 5703 5705 5707 5708 5709 5709 5709 5709 5709 5710 5709 5709 5709 5708 5707 5706 5706 5704 5703 5702 5700 5699 5697 5696 5696 5695 5694 5693 5693 5692 5691 5690 5689 5688 5687